Location: Amsterdam
(30.7274°N, 84.4357°W)
Time: 16:52:53
(UTC+00:00)

Injun/Solrad 3 - Pass Details

Date: 26 February 2026
Orbit: 871 x 985 km, 66.8° (Epoch: 11 March)

Event Time Altitude Azimuth Distance (km) Brightness Sun altitude
Rises 00:45:54 0° 332° (NNW) 3,610 11.4 -16.3°
Reaches altitude 10° 00:48:26 10° 330° (NNW) 2,678 10.7 -16.8°
Maximum altitude 00:54:39 69° 248° (WSW) 1,030 8.3 -18.2°
Drops below altitude 10° 01:00:59 10° 166° (SSE) 2,721 10.2 -19.5°
Sets 01:03:34 0° 164° (SSE) 3,671 10.8 -20.1°
